This is the latest recevied weather packets stored in our database for station/object SV9TNF-52. If no packets are shown the sender has not sent any weather packets the latest 10 day(s).
| Time | Temp. | Humidity | Pressure | Rain* | Wind** | Luminosity | Snow |
|---|---|---|---|---|---|---|---|
| 1788191572 | 28.89° C | 63% | 1020 hPa | 0 mm | 5.36 m/s, 319° | - | - |
| 1788191272 | 29.44° C | 62% | 1020 hPa | 0 mm | 3.13 m/s, 247° | - | - |
| 1788190972 | 29.44° C | 62% | 1020 hPa | 0 mm | 3.13 m/s, 286° | - | - |
| 1788190672 | 29.44° C | 61% | 1020 hPa | 0 mm | 1.79 m/s, 332° | - | - |
| 1788190371 | 30° C | 60% | 1020 hPa | 0 mm | 4.92 m/s, 57° | - | - |
| 1788190071 | 30.56° C | 59% | 1020 hPa | 0 mm | 1.34 m/s, 317° | - | - |
| 1788189771 | 30.56° C | 58% | 1020 hPa | 0 mm | 2.68 m/s, 324° | - | - |
| 1788189471 | 30.56° C | 57% | 1020 hPa | 0 mm | 4.02 m/s, 261° | - | - |
| 1788189171 | 30.56° C | 57% | 1020 hPa | 0 mm | 4.47 m/s, 248° | - | - |
| 1788188871 | 30.56° C | 58% | 1020 hPa | 0 mm | 4.47 m/s, 276° | - | - |
| 1788188571 | 30.56° C | 58% | 1020 hPa | 0 mm | 4.02 m/s, 260° | - | - |
| 1788188271 | 30.56° C | 59% | 1020 hPa | 0 mm | 4.92 m/s, 272° | - | - |
| 1788187971 | 30.56° C | 60% | 1020 hPa | 0 mm | 3.13 m/s, 266° | - | - |
| 1788187670 | 30.56° C | 60% | 1020 hPa | 0 mm | 4.02 m/s, 271° | - | - |
| 1788187371 | 30.56° C | 59% | 1020 hPa | 0 mm | 5.36 m/s, 252° | - | - |
| 1788187070 | 31.11° C | 57% | 1020 hPa | 0 mm | 3.13 m/s, 302° | - | - |
| 1788186770 | 31.11° C | 57% | 1020 hPa | 0 mm | 6.26 m/s, 266° | - | - |
| 1788186470 | 31.11° C | 56% | 1020 hPa | 0 mm | 4.02 m/s, 308° | - | - |
| 1788186170 | 31.67° C | 55% | 1020 hPa | 0 mm | 3.58 m/s, 241° | - | - |
| 1788185870 | 31.67° C | 57% | 1020 hPa | 0 mm | 2.68 m/s, 288° | - | - |
| 1788185570 | 31.67° C | 56% | 1020 hPa | 0 mm | 4.47 m/s, 262° | - | - |
| 1788185269 | 31.67° C | 55% | 1020 hPa | 0 mm | 4.47 m/s, 296° | - | - |
| 1788184970 | 32.22° C | 53% | 1020 hPa | 0 mm | 1.79 m/s, 266° | - | - |
| 1788184670 | 32.22° C | 53% | 1020 hPa | 0 mm | 4.47 m/s, 273° | - | - |
| 1788184369 | 31.67° C | 54% | 1020 hPa | 0 mm | 4.47 m/s, 250° | - | - |
* Rain latest hour (hover to see other rain measurements)
** Current wind speed in m/s (hover to see current wind gust speed)